SKU011 FAOR-FIMP

Flight info

Callsign SKU011
Flight time 3h 50m
Altitude 37000
Route EXOBI3B EXOBI UT122 ORNAD/N0406F270 UG653 SUNIR/N0446F350 UG653 SDG UA401 SOBAT
Aircraft A320/M-SDE3FGHIRWY/LB1

Departure

Time 2026-05-08 11:18
Airport O.R. Tambo International Airport (FAOR)

Arrival

Time 2026-05-08 15:09
Airport Sir Seewoosagur Ramgoolam International Airport (FIMP)
Time Latitude Longitude Altitude Speed Heading
2026-05-08 11:01 -26.11274 28.24189 5516 ft 0 kts 284°
2026-05-08 11:11 -26.11274 28.24188 5516 ft 0 kts 284°
2026-05-08 11:11 -26.11266 28.24188 5516 ft 1 kts 17°
2026-05-08 11:11 -26.11246 28.24225 5516 ft 10 kts 57°
2026-05-08 11:11 -26.11207 28.24286 5515 ft 9 kts 44°
2026-05-08 11:12 -26.11135 28.24318 5513 ft 16 kts 15°
2026-05-08 11:12 -26.11027 28.24351 5512 ft 16 kts 17°
2026-05-08 11:12 -26.10947 28.24379 5511 ft 9 kts 24°
2026-05-08 11:12 -26.10908 28.24425 5509 ft 8 kts 58°
2026-05-08 11:13 -26.10899 28.24444 5509 ft 0 kts 62°
2026-05-08 11:15 -26.10894 28.24453 5509 ft 4 kts 62°
2026-05-08 11:15 -26.10880 28.24483 5508 ft 4 kts 62°
2026-05-08 11:16 -26.10867 28.24512 5507 ft 4 kts 62°
2026-05-08 11:16 -26.10846 28.24580 5506 ft 11 kts 114°
2026-05-08 11:16 -26.10900 28.24591 5507 ft 7 kts 197°
2026-05-08 11:16 -26.10922 28.24584 5507 ft 0 kts 195°
2026-05-08 11:17 -26.10992 28.24564 5509 ft 39 kts 195°
2026-05-08 11:17 -26.11480 28.24411 5520 ft 104 kts 195°
2026-05-08 11:17 -26.12359 28.24137 5537 ft 156 kts 193°
2026-05-08 11:18 -26.13535 28.23736 5621 ft 193 kts 200°
2026-05-08 11:18 -26.14889 28.23292 6087 ft 214 kts 197°
2026-05-08 11:18 -26.16361 28.22899 6955 ft 216 kts 195°
2026-05-08 11:18 -26.17830 28.22540 7684 ft 219 kts 195°
2026-05-08 11:19 -26.19362 28.22160 7941 ft 238 kts 197°
2026-05-08 11:19 -26.21060 28.21722 8153 ft 262 kts 197°
2026-05-08 11:19 -26.22890 28.21239 8597 ft 278 kts 195°
2026-05-08 11:19 -26.24846 28.21033 9336 ft 288 kts 179°
2026-05-08 11:20 -26.26816 28.21557 10075 ft 298 kts 159°
2026-05-08 11:20 -26.28576 28.22824 10732 ft 308 kts 139°
2026-05-08 11:20 -26.29882 28.24753 11355 ft 320 kts 118°
2026-05-08 11:20 -26.30506 28.27215 11546 ft 343 kts 92°
2026-05-08 11:21 -26.30178 28.29910 11713 ft 361 kts 69°
2026-05-08 11:21 -26.29249 28.32548 12194 ft 371 kts 66°
2026-05-08 11:21 -26.28299 28.35245 12785 ft 376 kts 67°
2026-05-08 11:21 -26.27352 28.37981 13392 ft 380 kts 66°
2026-05-08 11:22 -26.26401 28.40753 13988 ft 385 kts 66°
2026-05-08 11:22 -26.25442 28.43547 14507 ft 389 kts 66°
2026-05-08 11:22 -26.24465 28.46383 15006 ft 394 kts 66°
2026-05-08 11:22 -26.23469 28.49253 15497 ft 399 kts 64°
2026-05-08 11:23 -26.22116 28.51939 15970 ft 398 kts 50°
2026-05-08 11:23 -26.20529 28.54424 16455 ft 402 kts 50°
2026-05-08 11:23 -26.18931 28.57001 16946 ft 407 kts 51°
2026-05-08 11:23 -26.17333 28.59629 17429 ft 412 kts 51°
2026-05-08 11:24 -26.15730 28.62281 17909 ft 416 kts 50°
2026-05-08 11:24 -26.14101 28.64964 18382 ft 420 kts 50°
2026-05-08 11:24 -26.12532 28.67737 18781 ft 428 kts 57°
2026-05-08 11:24 -26.11382 28.70826 19170 ft 439 kts 69°
2026-05-08 11:25 -26.10740 28.74180 19569 ft 447 kts 78°
2026-05-08 11:25 -26.10253 28.77614 19965 ft 450 kts 77°
2026-05-08 11:25 -26.09754 28.81064 20357 ft 454 kts 77°
2026-05-08 11:25 -26.09243 28.84548 20736 ft 458 kts 77°
2026-05-08 11:26 -26.08723 28.88059 21117 ft 461 kts 77°
2026-05-08 11:26 -26.08201 28.91587 21492 ft 465 kts 76°
2026-05-08 11:26 -26.07674 28.95154 21867 ft 469 kts 76°
2026-05-08 11:26 -26.07145 28.98741 22226 ft 472 kts 76°
2026-05-08 11:27 -26.06610 29.02362 22608 ft 476 kts 76°
2026-05-08 11:27 -26.06074 29.06002 22965 ft 479 kts 76°
2026-05-08 11:27 -26.05534 29.09675 23305 ft 482 kts 76°
2026-05-08 11:27 -26.04998 29.13324 23661 ft 486 kts 76°
2026-05-08 11:28 -26.04697 29.17136 23960 ft 493 kts 84°
2026-05-08 11:28 -26.04571 29.20907 24259 ft 495 kts 84°
2026-05-08 11:28 -26.04434 29.24731 24578 ft 497 kts 84°
2026-05-08 11:28 -26.04287 29.28585 24902 ft 499 kts 84°
2026-05-08 11:29 -26.04135 29.32450 25220 ft 501 kts 84°
2026-05-08 11:29 -26.03983 29.36318 25528 ft 503 kts 83°
2026-05-08 11:29 -26.03831 29.40213 25835 ft 505 kts 83°
2026-05-08 11:29 -26.03677 29.44123 26143 ft 507 kts 83°
2026-05-08 11:30 -26.03523 29.48039 26446 ft 508 kts 83°
2026-05-08 11:30 -26.03369 29.51965 26740 ft 510 kts 83°
2026-05-08 11:30 -26.03213 29.55932 27030 ft 512 kts 83°
2026-05-08 11:30 -26.03057 29.59887 27321 ft 514 kts 83°
2026-05-08 11:31 -26.02897 29.63868 27623 ft 516 kts 83°
2026-05-08 11:31 -26.02735 29.67851 27900 ft 518 kts 83°
2026-05-08 11:31 -26.02572 29.71862 28187 ft 520 kts 83°
2026-05-08 11:31 -26.02407 29.75893 28463 ft 522 kts 83°
2026-05-08 11:32 -26.02244 29.79919 28736 ft 523 kts 83°
2026-05-08 11:32 -26.02080 29.83917 28996 ft 525 kts 83°
2026-05-08 11:32 -26.01909 29.88023 29254 ft 527 kts 83°
2026-05-08 11:32 -26.01740 29.92102 29494 ft 529 kts 83°
2026-05-08 11:33 -26.01569 29.96194 29732 ft 530 kts 83°
2026-05-08 11:33 -26.01397 30.00285 29973 ft 532 kts 83°
2026-05-08 11:33 -26.01222 30.04346 30198 ft 533 kts 83°
2026-05-08 11:33 -26.01041 30.08475 30401 ft 535 kts 83°
2026-05-08 11:34 -26.00859 30.12592 30689 ft 534 kts 83°
2026-05-08 11:34 -26.00680 30.16719 30973 ft 534 kts 83°
2026-05-08 11:34 -26.00500 30.20842 31234 ft 533 kts 83°
2026-05-08 11:34 -26.00320 30.24965 31498 ft 533 kts 83°
2026-05-08 11:35 -26.00135 30.29084 31753 ft 533 kts 83°
2026-05-08 11:35 -25.99947 30.33188 32026 ft 533 kts 83°
2026-05-08 11:35 -25.99758 30.37304 32295 ft 532 kts 83°
2026-05-08 11:35 -25.99573 30.41404 32588 ft 532 kts 83°
2026-05-08 11:36 -25.99390 30.45519 32874 ft 532 kts 83°
2026-05-08 11:36 -25.99206 30.49614 33133 ft 531 kts 83°
2026-05-08 11:36 -25.99017 30.53719 33400 ft 531 kts 83°
2026-05-08 11:36 -25.98824 30.57822 33654 ft 531 kts 83°
2026-05-08 11:37 -25.98632 30.61910 33903 ft 531 kts 83°
2026-05-08 11:37 -25.98439 30.66009 34148 ft 530 kts 83°
2026-05-08 11:37 -25.98246 30.70093 34369 ft 530 kts 83°
2026-05-08 11:37 -25.98053 30.74139 34582 ft 530 kts 83°
2026-05-08 11:38 -25.97854 30.78273 34788 ft 530 kts 83°
2026-05-08 11:38 -25.97659 30.82311 34982 ft 530 kts 83°
2026-05-08 11:38 -25.97461 30.86405 35078 ft 529 kts 83°
2026-05-08 11:39 -25.97061 30.94548 35089 ft 527 kts 83°
2026-05-08 11:39 -25.96657 31.02671 35087 ft 526 kts 83°
2026-05-08 11:40 -25.96259 31.10769 35079 ft 524 kts 83°
2026-05-08 11:40 -25.95851 31.18871 35080 ft 524 kts 83°
2026-05-08 11:41 -25.95431 31.26943 35068 ft 523 kts 82°
2026-05-08 11:41 -25.95009 31.35010 35058 ft 523 kts 83°
2026-05-08 11:42 -25.94587 31.43074 35051 ft 522 kts 83°
2026-05-08 11:42 -25.94163 31.51123 35046 ft 522 kts 82°
2026-05-08 11:43 -25.93735 31.59111 35040 ft 521 kts 82°
2026-05-08 11:43 -25.93304 31.67157 35037 ft 521 kts 82°
2026-05-08 11:44 -25.92866 31.75179 35031 ft 520 kts 82°
2026-05-08 11:44 -25.92426 31.83195 35022 ft 520 kts 82°
2026-05-08 11:45 -25.91976 31.91233 35010 ft 521 kts 82°
2026-05-08 11:45 -25.91515 31.99252 34995 ft 520 kts 81°
2026-05-08 11:46 -25.90946 32.07260 34990 ft 520 kts 81°
2026-05-08 11:46 -25.90316 32.15267 34979 ft 520 kts 80°
2026-05-08 11:47 -25.89705 32.23216 34968 ft 520 kts 81°
2026-05-08 11:47 -25.89201 32.29916 34953 ft 520 kts 81°
2026-05-08 11:48 -25.88508 32.39227 34944 ft 520 kts 81°
2026-05-08 11:48 -25.87898 32.47232 34939 ft 520 kts 81°
2026-05-08 11:49 -25.87281 32.55238 34939 ft 520 kts 81°
2026-05-08 11:49 -25.86620 32.61874 34940 ft 515 kts 73°
2026-05-08 11:50 -25.85176 32.69651 34940 ft 515 kts 72°
2026-05-08 11:50 -25.83729 32.77428 34943 ft 515 kts 72°
2026-05-08 11:51 -25.82285 32.85206 34949 ft 515 kts 73°
2026-05-08 11:51 -25.80836 32.92995 34956 ft 515 kts 72°
2026-05-08 11:52 -25.79373 33.00764 34964 ft 515 kts 72°
2026-05-08 11:52 -25.77912 33.08492 34964 ft 515 kts 72°
2026-05-08 11:53 -25.76445 33.16258 34960 ft 515 kts 72°
2026-05-08 11:53 -25.74975 33.24036 34960 ft 515 kts 72°
2026-05-08 11:54 -25.73507 33.31800 34961 ft 515 kts 72°
2026-05-08 11:54 -25.72032 33.39576 34961 ft 515 kts 72°
2026-05-08 11:55 -25.70543 33.47332 34965 ft 514 kts 72°
2026-05-08 11:55 -25.69052 33.55086 34962 ft 514 kts 72°
2026-05-08 11:56 -25.67565 33.62854 34960 ft 514 kts 72°
2026-05-08 11:56 -25.66073 33.70604 34960 ft 514 kts 72°
2026-05-08 11:57 -25.64573 33.78349 34957 ft 514 kts 72°
2026-05-08 11:57 -25.63067 33.86103 34960 ft 514 kts 72°
2026-05-08 11:58 -25.61570 33.93789 34963 ft 514 kts 72°
2026-05-08 11:58 -25.60064 34.01523 34968 ft 514 kts 72°
2026-05-08 11:59 -25.57809 34.13139 34972 ft 514 kts 73°
2026-05-08 11:59 -25.56381 34.20889 34963 ft 514 kts 73°
2026-05-08 12:00 -25.54968 34.28640 34968 ft 514 kts 73°
2026-05-08 12:00 -25.53533 34.36395 34962 ft 513 kts 73°
2026-05-08 12:01 -25.52091 34.44088 34961 ft 513 kts 73°
2026-05-08 12:01 -25.50641 34.51818 34958 ft 513 kts 73°
2026-05-08 12:02 -25.49192 34.59559 34961 ft 513 kts 73°
2026-05-08 12:02 -25.47729 34.67280 34963 ft 513 kts 73°
2026-05-08 12:03 -25.46265 34.74998 34965 ft 513 kts 73°
2026-05-08 12:03 -25.44803 34.82710 34960 ft 512 kts 73°
2026-05-08 12:04 -25.43341 34.90434 34964 ft 512 kts 73°
2026-05-08 12:04 -25.41877 34.98137 34965 ft 512 kts 73°
2026-05-08 12:05 -25.40404 35.05847 34968 ft 511 kts 73°
2026-05-08 12:05 -25.38929 35.13482 34957 ft 511 kts 73°
2026-05-08 12:06 -25.37445 35.21161 34957 ft 511 kts 73°
2026-05-08 12:06 -25.35964 35.28850 34959 ft 510 kts 73°
2026-05-08 12:07 -25.34485 35.36517 34959 ft 510 kts 73°
2026-05-08 12:07 -25.32991 35.44186 34968 ft 509 kts 73°
2026-05-08 12:08 -25.31505 35.51836 34968 ft 509 kts 73°
2026-05-08 12:08 -25.30021 35.59481 34969 ft 509 kts 73°
2026-05-08 12:09 -25.28522 35.67128 34967 ft 508 kts 73°
2026-05-08 12:09 -25.27024 35.74702 34968 ft 508 kts 73°
2026-05-08 12:10 -25.25518 35.82337 34966 ft 508 kts 73°
2026-05-08 12:10 -25.24023 35.89958 34961 ft 508 kts 73°
2026-05-08 12:11 -25.22512 35.97572 34961 ft 508 kts 73°
2026-05-08 12:11 -25.20998 36.05181 34959 ft 508 kts 73°
2026-05-08 12:12 -25.19488 36.12803 34956 ft 507 kts 73°
2026-05-08 12:12 -25.17974 36.20408 34960 ft 507 kts 73°
2026-05-08 12:13 -25.16454 36.27955 34960 ft 507 kts 73°
2026-05-08 12:13 -25.14925 36.35551 34962 ft 507 kts 73°
2026-05-08 12:14 -25.13398 36.43157 34960 ft 507 kts 73°
2026-05-08 12:14 -25.11868 36.50743 34960 ft 507 kts 73°
2026-05-08 12:15 -25.10300 36.58311 34961 ft 506 kts 72°
2026-05-08 12:15 -25.08628 36.65835 34963 ft 505 kts 72°
2026-05-08 12:16 -25.06915 36.73349 34969 ft 504 kts 72°
2026-05-08 12:16 -25.05228 36.80848 34971 ft 504 kts 72°
2026-05-08 12:17 -25.03554 36.88340 34974 ft 503 kts 72°
2026-05-08 12:17 -25.01884 36.95834 34973 ft 502 kts 72°
2026-05-08 12:18 -25.00218 37.03250 34976 ft 502 kts 72°
2026-05-08 12:18 -24.98539 37.10701 34977 ft 501 kts 72°
2026-05-08 12:19 -24.96860 37.18154 34977 ft 500 kts 72°
2026-05-08 12:19 -24.95180 37.25581 34978 ft 499 kts 72°
2026-05-08 12:20 -24.93501 37.32996 34978 ft 499 kts 72°
2026-05-08 12:20 -24.91809 37.40416 34972 ft 499 kts 72°
2026-05-08 12:21 -24.90120 37.47816 34975 ft 498 kts 72°
2026-05-08 12:21 -24.88439 37.55174 34972 ft 498 kts 72°
2026-05-08 12:22 -24.86747 37.62561 34969 ft 498 kts 72°
2026-05-08 12:22 -24.85052 37.69943 34976 ft 497 kts 72°
2026-05-08 12:23 -24.83354 37.77332 34970 ft 497 kts 72°
2026-05-08 12:23 -24.81652 37.84699 34971 ft 497 kts 72°
2026-05-08 12:24 -24.79946 37.92059 34971 ft 496 kts 72°
2026-05-08 12:24 -24.78243 37.99427 34976 ft 496 kts 72°
2026-05-08 12:25 -24.76535 38.06772 34972 ft 495 kts 72°
2026-05-08 12:25 -24.74824 38.14121 34975 ft 495 kts 72°
2026-05-08 12:26 -24.73121 38.21411 34976 ft 495 kts 72°
2026-05-08 12:26 -24.71405 38.28729 34980 ft 494 kts 72°
2026-05-08 12:27 -24.69693 38.36039 34979 ft 494 kts 72°
2026-05-08 12:27 -24.67979 38.43354 34982 ft 493 kts 72°
2026-05-08 12:28 -24.66256 38.50646 34980 ft 493 kts 72°
2026-05-08 12:28 -24.64528 38.57945 34975 ft 493 kts 71°
2026-05-08 12:29 -24.62804 38.65229 34975 ft 493 kts 71°
2026-05-08 12:29 -24.61089 38.72462 34974 ft 493 kts 71°
2026-05-08 12:30 -24.59350 38.79751 34977 ft 493 kts 71°
2026-05-08 12:30 -24.57613 38.87028 34974 ft 493 kts 72°
2026-05-08 12:31 -24.55880 38.94308 34977 ft 493 kts 71°
2026-05-08 12:31 -24.54135 39.01585 34973 ft 493 kts 71°
2026-05-08 12:32 -24.52378 39.08872 34973 ft 493 kts 71°
2026-05-08 12:32 -24.50630 39.16151 34971 ft 493 kts 71°
2026-05-08 12:33 -24.48880 39.23431 34976 ft 493 kts 71°
2026-05-08 12:33 -24.47116 39.30721 34974 ft 494 kts 71°
2026-05-08 12:34 -24.45365 39.37951 34978 ft 494 kts 71°
2026-05-08 12:34 -24.43597 39.45227 34980 ft 494 kts 71°
2026-05-08 12:35 -24.41825 39.52503 34981 ft 494 kts 71°
2026-05-08 12:35 -24.40047 39.59790 34989 ft 494 kts 71°
2026-05-08 12:36 -24.38269 39.67064 34981 ft 494 kts 71°
2026-05-08 12:36 -24.36481 39.74335 34974 ft 494 kts 71°
2026-05-08 12:37 -24.34695 39.81609 34981 ft 494 kts 71°
2026-05-08 12:37 -24.32909 39.88896 34985 ft 494 kts 71°
2026-05-08 12:38 -24.31117 39.96171 34991 ft 495 kts 71°
2026-05-08 12:38 -24.29339 40.03413 34984 ft 495 kts 71°
2026-05-08 12:39 -24.27636 40.10725 34985 ft 496 kts 72°
2026-05-08 12:39 -24.25976 40.18055 34985 ft 496 kts 72°
2026-05-08 12:40 -24.24304 40.25383 34988 ft 496 kts 72°
2026-05-08 12:40 -24.22596 40.32715 34986 ft 496 kts 71°
2026-05-08 12:41 -24.20867 40.40028 34990 ft 496 kts 71°
2026-05-08 12:41 -24.19152 40.47349 34987 ft 497 kts 72°
2026-05-08 12:42 -24.17436 40.54671 34989 ft 497 kts 71°
2026-05-08 12:42 -24.15709 40.62005 34995 ft 497 kts 71°
2026-05-08 12:43 -24.13984 40.69329 34997 ft 497 kts 71°
2026-05-08 12:43 -24.12251 40.76665 34994 ft 497 kts 71°
2026-05-08 12:44 -24.10528 40.83940 34998 ft 497 kts 71°
2026-05-08 12:44 -24.08789 40.91265 34998 ft 497 kts 71°
2026-05-08 12:45 -24.07043 40.98588 34999 ft 498 kts 71°
2026-05-08 12:45 -24.05585 41.04681 34999 ft 498 kts 71°
2026-05-08 12:46 -24.03835 41.12018 34999 ft 498 kts 71°
2026-05-08 12:46 -24.02089 41.19346 35003 ft 498 kts 71°
2026-05-08 12:47 -24.00334 41.26684 35005 ft 498 kts 71°
2026-05-08 12:47 -23.98569 41.34005 35005 ft 498 kts 71°
2026-05-08 12:48 -23.96794 41.41336 35006 ft 498 kts 71°
2026-05-08 12:48 -23.95027 41.48657 35005 ft 498 kts 71°
2026-05-08 12:49 -23.93251 41.55974 35008 ft 498 kts 71°
2026-05-08 12:49 -23.91487 41.63255 35009 ft 498 kts 71°
2026-05-08 12:50 -23.89702 41.70622 35006 ft 498 kts 71°
2026-05-08 12:50 -23.87930 41.77890 35010 ft 499 kts 71°
2026-05-08 12:51 -23.85245 41.88873 35009 ft 499 kts 71°
2026-05-08 12:52 -23.83452 41.96192 35006 ft 499 kts 71°
2026-05-08 12:52 -23.80743 42.07174 35009 ft 499 kts 71°
2026-05-08 12:53 -23.78938 42.14492 35016 ft 499 kts 71°
2026-05-08 12:53 -23.77133 42.21823 35016 ft 499 kts 71°
2026-05-08 12:54 -23.75325 42.29144 35014 ft 499 kts 71°
2026-05-08 12:54 -23.73514 42.36459 35017 ft 499 kts 71°
2026-05-08 12:55 -23.71700 42.43772 35014 ft 499 kts 71°
2026-05-08 12:55 -23.69889 42.51047 35009 ft 500 kts 71°
2026-05-08 12:56 -23.68060 42.58356 35011 ft 500 kts 71°
2026-05-08 12:56 -23.66218 42.65661 35010 ft 500 kts 71°
2026-05-08 12:57 -23.64382 42.72968 35011 ft 500 kts 71°
2026-05-08 12:57 -23.62548 42.80289 35009 ft 500 kts 71°
2026-05-08 12:58 -23.60717 42.87596 35009 ft 500 kts 71°
2026-05-08 12:58 -23.58872 42.94897 35008 ft 500 kts 71°
2026-05-08 12:59 -23.57032 43.02160 35008 ft 500 kts 71°
2026-05-08 12:59 -23.55181 43.09458 35008 ft 500 kts 71°
2026-05-08 13:00 -23.53324 43.16766 35008 ft 500 kts 71°
2026-05-08 13:00 -23.51469 43.24065 35005 ft 500 kts 71°
2026-05-08 13:01 -23.49612 43.31359 35006 ft 500 kts 71°
2026-05-08 13:01 -23.47750 43.38650 34995 ft 500 kts 71°
2026-05-08 13:02 -23.45874 43.45950 34980 ft 500 kts 71°
2026-05-08 13:02 -23.44000 43.53239 34973 ft 500 kts 72°
2026-05-08 13:03 -23.42129 43.60529 34966 ft 500 kts 72°
2026-05-08 13:03 -23.40249 43.67815 34963 ft 500 kts 72°
2026-05-08 13:04 -23.38604 43.75132 34962 ft 502 kts 77°
2026-05-08 13:04 -23.37312 43.82592 34962 ft 502 kts 77°
2026-05-08 13:05 -23.36016 43.90051 34974 ft 502 kts 77°
2026-05-08 13:05 -23.34718 43.97521 34985 ft 502 kts 77°
2026-05-08 13:06 -23.33419 44.04975 34994 ft 502 kts 77°
2026-05-08 13:06 -23.32114 44.12425 35002 ft 501 kts 77°
2026-05-08 13:07 -23.30804 44.19870 34996 ft 501 kts 77°
2026-05-08 13:07 -23.29491 44.27326 34996 ft 501 kts 77°
2026-05-08 13:08 -23.28173 44.34765 34991 ft 501 kts 77°
2026-05-08 13:08 -23.26857 44.42200 34987 ft 501 kts 78°
2026-05-08 13:09 -23.25541 44.49600 34989 ft 501 kts 77°
2026-05-08 13:09 -23.24224 44.57035 34988 ft 501 kts 78°
2026-05-08 13:10 -23.22896 44.64478 34987 ft 501 kts 77°
2026-05-08 13:10 -23.21558 44.71902 34992 ft 501 kts 77°
2026-05-08 13:11 -23.20216 44.79324 34993 ft 500 kts 77°
2026-05-08 13:11 -23.18880 44.86747 34995 ft 500 kts 78°
2026-05-08 13:12 -23.17538 44.94174 35001 ft 500 kts 77°
2026-05-08 13:12 -23.16194 45.01582 35001 ft 500 kts 77°
2026-05-08 13:13 -23.14851 45.08946 35007 ft 499 kts 77°
2026-05-08 13:13 -23.13498 45.16350 35002 ft 499 kts 77°
2026-05-08 13:14 -23.12142 45.23732 35003 ft 498 kts 77°
2026-05-08 13:14 -23.10799 45.31113 35001 ft 498 kts 77°
2026-05-08 13:15 -23.09441 45.38487 35007 ft 498 kts 77°
2026-05-08 13:15 -23.08077 45.45869 35010 ft 498 kts 77°
2026-05-08 13:16 -23.06720 45.53236 35013 ft 498 kts 77°
2026-05-08 13:16 -23.05355 45.60597 35016 ft 497 kts 77°
2026-05-08 13:17 -23.03982 45.67966 35020 ft 497 kts 77°
2026-05-08 13:17 -23.02618 45.75322 35021 ft 497 kts 77°
2026-05-08 13:18 -23.01251 45.82677 35029 ft 497 kts 77°
2026-05-08 13:18 -22.99873 45.90026 35030 ft 497 kts 77°
2026-05-08 13:19 -22.98494 45.97367 35045 ft 496 kts 77°
2026-05-08 13:19 -22.97112 46.04701 35049 ft 496 kts 77°
2026-05-08 13:20 -22.95730 46.11989 35055 ft 496 kts 77°
2026-05-08 13:20 -22.94346 46.19306 35067 ft 495 kts 77°
2026-05-08 13:21 -22.92956 46.26618 35064 ft 494 kts 77°
2026-05-08 13:21 -22.91564 46.33912 35075 ft 494 kts 77°
2026-05-08 13:22 -22.90165 46.41207 35069 ft 494 kts 77°
2026-05-08 13:22 -22.88772 46.48506 35068 ft 493 kts 77°
2026-05-08 13:23 -22.87377 46.55778 35073 ft 492 kts 77°
2026-05-08 13:23 -22.85986 46.63043 35077 ft 492 kts 77°
2026-05-08 13:24 -22.84598 46.70252 35075 ft 492 kts 77°
2026-05-08 13:24 -22.83194 46.77503 35076 ft 491 kts 77°
2026-05-08 13:25 -22.81784 46.84758 35077 ft 491 kts 77°
2026-05-08 13:25 -22.80380 46.91997 35076 ft 491 kts 77°
2026-05-08 13:26 -22.78978 46.99229 35075 ft 491 kts 77°
2026-05-08 13:26 -22.77572 47.06458 35072 ft 490 kts 77°
2026-05-08 13:27 -22.76151 47.13695 35066 ft 490 kts 76°
2026-05-08 13:27 -22.74728 47.20916 35066 ft 490 kts 76°
2026-05-08 13:28 -22.73307 47.28135 35062 ft 490 kts 76°
2026-05-08 13:28 -22.71885 47.35361 35061 ft 490 kts 76°
2026-05-08 13:29 -22.70464 47.42562 35058 ft 489 kts 76°
2026-05-08 13:29 -22.69047 47.49729 35060 ft 489 kts 76°
2026-05-08 13:30 -22.67608 47.56934 35059 ft 489 kts 76°
2026-05-08 13:30 -22.66170 47.64123 35059 ft 488 kts 76°
2026-05-08 13:31 -22.64739 47.71302 35064 ft 488 kts 76°
2026-05-08 13:31 -22.63301 47.78476 35065 ft 487 kts 76°
2026-05-08 13:32 -22.61863 47.85643 35063 ft 487 kts 76°
2026-05-08 13:32 -22.60425 47.92814 35060 ft 487 kts 76°
2026-05-08 13:33 -22.58981 47.99915 35062 ft 487 kts 76°
2026-05-08 13:33 -22.57545 48.07065 35061 ft 486 kts 76°
2026-05-08 13:34 -22.56105 48.14222 35065 ft 486 kts 76°
2026-05-08 13:34 -22.54654 48.21360 35065 ft 486 kts 76°
2026-05-08 13:35 -22.53202 48.28494 35066 ft 486 kts 76°
2026-05-08 13:35 -22.51744 48.35623 35070 ft 486 kts 76°
2026-05-08 13:36 -22.50286 48.42760 35072 ft 485 kts 76°
2026-05-08 13:36 -22.48829 48.49880 35074 ft 485 kts 76°
2026-05-08 13:37 -22.47375 48.56997 35074 ft 485 kts 76°
2026-05-08 13:37 -22.45915 48.64108 35078 ft 485 kts 76°
2026-05-08 13:38 -22.44454 48.71177 35079 ft 484 kts 76°
2026-05-08 13:38 -22.42990 48.78277 35080 ft 484 kts 76°
2026-05-08 13:39 -22.41521 48.85372 35084 ft 484 kts 76°
2026-05-08 13:39 -22.40046 48.92472 35090 ft 484 kts 76°
2026-05-08 13:40 -22.38819 48.98365 35086 ft 483 kts 76°
2026-05-08 13:40 -22.37104 49.06635 35091 ft 483 kts 76°
2026-05-08 13:41 -22.35874 49.12520 35087 ft 483 kts 76°
2026-05-08 13:41 -22.34387 49.19586 35088 ft 483 kts 76°
2026-05-08 13:42 -22.32899 49.26660 35086 ft 482 kts 76°
2026-05-08 13:42 -22.31414 49.33719 35096 ft 482 kts 76°
2026-05-08 13:43 -22.29939 49.40738 35087 ft 482 kts 76°
2026-05-08 13:43 -22.28450 49.47787 35081 ft 482 kts 76°
2026-05-08 13:44 -22.26958 49.54830 35082 ft 481 kts 76°
2026-05-08 13:44 -22.25462 49.61867 35092 ft 481 kts 76°
2026-05-08 13:45 -22.23955 49.68909 35094 ft 481 kts 76°
2026-05-08 13:45 -22.22452 49.75936 35087 ft 481 kts 76°
2026-05-08 13:46 -22.20959 49.82962 35095 ft 480 kts 76°
2026-05-08 13:46 -22.19457 49.89975 35097 ft 476 kts 76°
2026-05-08 13:47 -22.18714 49.93423 35090 ft 465 kts 76°
2026-05-08 13:47 -22.17990 49.96772 35097 ft 453 kts 76°
2026-05-08 13:47 -22.17286 50.00047 35101 ft 442 kts 76°
2026-05-08 13:47 -22.16604 50.03233 35097 ft 431 kts 76°
2026-05-08 13:48 -22.15938 50.06337 35106 ft 418 kts 76°
2026-05-08 13:48 -22.15289 50.09355 35107 ft 407 kts 76°
2026-05-08 13:48 -22.14665 50.12239 35103 ft 395 kts 76°
2026-05-08 13:48 -22.14045 50.15090 35097 ft 384 kts 75°
2026-05-08 13:49 -22.13435 50.17879 35094 ft 372 kts 75°
2026-05-08 13:49 -22.12860 50.20516 35093 ft 360 kts 75°
2026-05-08 13:49 -22.12297 50.23117 34889 ft 355 kts 75°
2026-05-08 13:49 -22.11735 50.25730 34417 ft 360 kts 76°
2026-05-08 13:50 -22.11173 50.28383 33927 ft 364 kts 76°
2026-05-08 13:50 -22.10628 50.31019 33664 ft 357 kts 77°
2026-05-08 13:50 -22.10103 50.33644 32845 ft 366 kts 77°
2026-05-08 13:50 -22.09550 50.36489 31159 ft 407 kts 78°
2026-05-08 13:51 -22.09018 50.39352 31614 ft 375 kts 78°
2026-05-08 13:51 -22.08464 50.42144 30734 ft 389 kts 75°
2026-05-08 13:51 -22.07787 50.44941 30534 ft 381 kts 73°
2026-05-08 13:51 -22.07093 50.47682 30234 ft 375 kts 73°
2026-05-08 13:52 -22.06435 50.50333 29961 ft 370 kts 74°
2026-05-08 13:52 -22.05793 50.53039 29360 ft 373 kts 75°
2026-05-08 13:52 -22.05181 50.55739 29008 ft 371 kts 75°
2026-05-08 13:52 -22.04588 50.58433 28715 ft 364 kts 76°
2026-05-08 13:53 -22.04021 50.61056 28435 ft 359 kts 76°
2026-05-08 13:53 -22.03458 50.63677 28019 ft 358 kts 76°
2026-05-08 13:53 -22.02896 50.66282 27638 ft 355 kts 76°
2026-05-08 13:53 -22.02333 50.68857 27300 ft 351 kts 76°
2026-05-08 13:54 -22.01779 50.71381 27095 ft 344 kts 76°
2026-05-08 13:54 -22.01229 50.73890 26691 ft 343 kts 76°
2026-05-08 13:54 -22.00681 50.76378 26342 ft 341 kts 76°
2026-05-08 13:54 -22.00134 50.78851 26093 ft 335 kts 76°
2026-05-08 13:55 -21.99603 50.81254 25896 ft 328 kts 75°
2026-05-08 13:55 -21.99089 50.83598 25870 ft 313 kts 76°
2026-05-08 13:55 -21.98146 50.87890 25989 ft 279 kts 75°
2026-05-08 13:56 -21.97693 50.89926 25561 ft 282 kts 75°
2026-05-08 13:56 -21.97221 50.92014 25012 ft 291 kts 75°
2026-05-08 13:56 -21.96740 50.94113 24844 ft 283 kts 75°
2026-05-08 13:56 -21.96276 50.96119 24782 ft 270 kts 75°
2026-05-08 13:57 -21.95815 50.98087 24366 ft 273 kts 75°
2026-05-08 13:57 -21.95340 51.00196 23329 ft 302 kts 77°
2026-05-08 13:57 -21.94908 51.02414 23097 ft 295 kts 78°
2026-05-08 13:57 -21.94502 51.04585 22605 ft 299 kts 77°
2026-05-08 13:58 -21.94038 51.06722 22477 ft 289 kts 76°
2026-05-08 13:58 -21.93564 51.08796 22125 ft 288 kts 75°
2026-05-08 13:58 -21.93076 51.10882 21884 ft 286 kts 75°
2026-05-08 13:58 -21.92594 51.12949 21613 ft 285 kts 76°
2026-05-08 13:59 -21.92120 51.15017 21360 ft 283 kts 76°
2026-05-08 13:59 -21.91651 51.17077 21144 ft 283 kts 76°
2026-05-08 13:59 -21.91188 51.19132 20899 ft 281 kts 76°
2026-05-08 13:59 -21.90731 51.21172 20623 ft 280 kts 76°
2026-05-08 14:00 -21.90278 51.23199 20281 ft 276 kts 76°
2026-05-08 14:00 -21.89828 51.25202 19944 ft 275 kts 76°
2026-05-08 14:00 -21.89383 51.27202 19661 ft 273 kts 76°
2026-05-08 14:00 -21.88942 51.29184 19380 ft 272 kts 76°
2026-05-08 14:01 -21.88504 51.31160 19088 ft 270 kts 76°
2026-05-08 14:01 -21.88067 51.33118 18815 ft 269 kts 76°
2026-05-08 14:01 -21.87628 51.35070 18523 ft 267 kts 76°
2026-05-08 14:01 -21.87191 51.37006 18245 ft 264 kts 76°
2026-05-08 14:02 -21.86756 51.38920 17890 ft 262 kts 76°
2026-05-08 14:02 -21.86322 51.40812 17427 ft 259 kts 76°
2026-05-08 14:02 -21.85884 51.42700 16894 ft 261 kts 76°
2026-05-08 14:02 -21.85465 51.44576 16721 ft 251 kts 77°
2026-05-08 14:03 -21.85067 51.46404 16346 ft 251 kts 77°
2026-05-08 14:03 -21.84671 51.48224 16023 ft 248 kts 77°
2026-05-08 14:03 -21.84282 51.50018 15605 ft 246 kts 77°
2026-05-08 14:03 -21.83928 51.51771 15673 ft 232 kts 77°
2026-05-08 14:04 -21.83568 51.53440 15571 ft 235 kts 77°
2026-05-08 14:04 -21.83161 51.55208 15139 ft 254 kts 76°
2026-05-08 14:04 -21.82682 51.57229 14010 ft 303 kts 76°
2026-05-08 14:04 -21.82183 51.59252 14739 ft 269 kts 76°
2026-05-08 14:05 -21.81725 51.61185 14725 ft 270 kts 77°
2026-05-08 14:05 -21.81278 51.63172 14721 ft 271 kts 77°
2026-05-08 14:05 -21.80846 51.65119 14727 ft 271 kts 77°
2026-05-08 14:05 -21.80410 51.67069 14856 ft 265 kts 77°
2026-05-08 14:06 -21.79981 51.68976 14993 ft 259 kts 77°
2026-05-08 14:06 -21.79558 51.70839 15128 ft 253 kts 77°
2026-05-08 14:06 -21.79145 51.72655 15207 ft 249 kts 77°
2026-05-08 14:06 -21.78729 51.74484 15274 ft 260 kts 77°
2026-05-08 14:07 -21.78278 51.76484 15429 ft 290 kts 77°
2026-05-08 14:07 -21.77781 51.78699 15585 ft 320 kts 77°
2026-05-08 14:07 -21.77232 51.81138 15727 ft 349 kts 77°
2026-05-08 14:07 -21.76652 51.83688 15857 ft 345 kts 77°
2026-05-08 14:08 -21.76075 51.86216 16005 ft 352 kts 77°
2026-05-08 14:08 -21.75489 51.88786 16136 ft 354 kts 77°
2026-05-08 14:08 -21.74902 51.91360 16396 ft 357 kts 77°
2026-05-08 14:08 -21.74306 51.93967 17034 ft 360 kts 76°
2026-05-08 14:09 -21.73704 51.96594 17654 ft 363 kts 76°
2026-05-08 14:09 -21.73102 51.99233 18273 ft 366 kts 76°
2026-05-08 14:09 -21.72493 52.01902 18801 ft 369 kts 76°
2026-05-08 14:09 -21.71884 52.04559 19303 ft 372 kts 76°
2026-05-08 14:10 -21.71261 52.07276 19806 ft 375 kts 76°
2026-05-08 14:10 -21.70634 52.10007 20303 ft 379 kts 76°
2026-05-08 14:10 -21.69997 52.12770 20797 ft 382 kts 76°
2026-05-08 14:10 -21.69355 52.15548 21277 ft 385 kts 76°
2026-05-08 14:11 -21.68709 52.18360 21745 ft 389 kts 76°
2026-05-08 14:11 -21.68054 52.21225 21901 ft 401 kts 76°
2026-05-08 14:11 -21.67375 52.24176 22156 ft 410 kts 76°
2026-05-08 14:11 -21.66687 52.27160 22623 ft 412 kts 76°
2026-05-08 14:12 -21.65999 52.30142 23155 ft 412 kts 76°
2026-05-08 14:12 -21.65305 52.33135 23695 ft 412 kts 76°
2026-05-08 14:12 -21.64614 52.36132 24131 ft 413 kts 76°
2026-05-08 14:12 -21.63920 52.39121 24561 ft 413 kts 76°
2026-05-08 14:13 -21.63221 52.42125 24981 ft 414 kts 76°
2026-05-08 14:13 -21.62522 52.45126 25397 ft 415 kts 76°
2026-05-08 14:13 -21.61824 52.48144 25831 ft 416 kts 76°
2026-05-08 14:13 -21.61124 52.51175 26048 ft 418 kts 76°
2026-05-08 14:14 -21.60419 52.54209 26108 ft 418 kts 75°
2026-05-08 14:14 -21.59715 52.57230 26112 ft 418 kts 75°
2026-05-08 14:14 -21.59020 52.60220 26109 ft 417 kts 75°
2026-05-08 14:14 -21.58314 52.63246 26110 ft 417 kts 75°
2026-05-08 14:15 -21.57606 52.66262 26108 ft 417 kts 75°
2026-05-08 14:15 -21.56898 52.69288 26107 ft 417 kts 75°
2026-05-08 14:15 -21.56193 52.72313 26111 ft 417 kts 76°
2026-05-08 14:15 -21.55493 52.75329 26111 ft 417 kts 75°
2026-05-08 14:16 -21.54788 52.78356 26111 ft 417 kts 75°
2026-05-08 14:16 -21.54080 52.81379 26109 ft 417 kts 75°
2026-05-08 14:16 -21.53373 52.84390 26111 ft 417 kts 75°
2026-05-08 14:16 -21.52665 52.87410 26108 ft 416 kts 75°
2026-05-08 14:17 -21.51960 52.90419 26103 ft 416 kts 75°
2026-05-08 14:17 -21.51248 52.93436 26100 ft 416 kts 75°
2026-05-08 14:17 -21.50534 52.96451 26101 ft 416 kts 75°
2026-05-08 14:17 -21.49826 52.99457 26102 ft 416 kts 75°
2026-05-08 14:18 -21.49119 53.02472 26101 ft 416 kts 75°
2026-05-08 14:18 -21.48412 53.05487 26102 ft 416 kts 75°
2026-05-08 14:18 -21.47705 53.08491 26095 ft 416 kts 75°
2026-05-08 14:18 -21.46993 53.11503 26097 ft 416 kts 75°
2026-05-08 14:19 -21.46282 53.14515 26095 ft 416 kts 75°
2026-05-08 14:19 -21.45575 53.17517 26096 ft 416 kts 75°
2026-05-08 14:19 -21.44874 53.20488 26098 ft 416 kts 75°
2026-05-08 14:19 -21.44162 53.23498 26098 ft 416 kts 75°
2026-05-08 14:20 -21.43450 53.26496 26099 ft 415 kts 75°
2026-05-08 14:20 -21.42734 53.29504 26099 ft 415 kts 75°
2026-05-08 14:20 -21.42018 53.32510 26098 ft 415 kts 75°
2026-05-08 14:20 -21.41301 53.35516 26098 ft 415 kts 75°
2026-05-08 14:21 -21.40582 53.38521 26100 ft 415 kts 75°
2026-05-08 14:21 -21.39865 53.41515 26096 ft 415 kts 75°
2026-05-08 14:21 -21.39148 53.44520 26095 ft 415 kts 75°
2026-05-08 14:21 -21.38436 53.47514 26097 ft 415 kts 75°
2026-05-08 14:22 -21.37722 53.50519 26095 ft 415 kts 75°
2026-05-08 14:22 -21.37006 53.53524 26097 ft 415 kts 75°
2026-05-08 14:22 -21.36288 53.56527 26096 ft 415 kts 75°
2026-05-08 14:22 -21.35570 53.59520 26095 ft 415 kts 75°
2026-05-08 14:23 -21.34849 53.62523 26095 ft 415 kts 75°
2026-05-08 14:23 -21.34127 53.65526 26094 ft 415 kts 75°
2026-05-08 14:23 -21.33409 53.68519 26098 ft 415 kts 75°
2026-05-08 14:23 -21.32686 53.71521 26096 ft 415 kts 75°
2026-05-08 14:24 -21.31969 53.74514 26097 ft 415 kts 75°
2026-05-08 14:24 -21.31250 53.77516 26096 ft 415 kts 75°
2026-05-08 14:24 -21.30541 53.80478 26096 ft 415 kts 75°
2026-05-08 14:24 -21.29808 53.83518 26097 ft 415 kts 75°
2026-05-08 14:25 -21.29095 53.86467 26098 ft 415 kts 75°
2026-05-08 14:25 -21.28371 53.89466 26099 ft 415 kts 75°
2026-05-08 14:25 -21.27651 53.92454 26101 ft 415 kts 75°
2026-05-08 14:25 -21.26928 53.95451 26098 ft 415 kts 75°
2026-05-08 14:26 -21.26204 53.98447 26098 ft 415 kts 75°
2026-05-08 14:26 -21.25479 54.01431 26098 ft 415 kts 75°
2026-05-08 14:26 -21.24751 54.04425 26099 ft 415 kts 75°
2026-05-08 14:26 -21.24021 54.07418 26097 ft 415 kts 75°
2026-05-08 14:27 -21.23292 54.10411 26096 ft 415 kts 75°
2026-05-08 14:27 -21.22565 54.13394 26098 ft 415 kts 75°
2026-05-08 14:27 -21.21836 54.16388 26094 ft 415 kts 75°
2026-05-08 14:27 -21.21110 54.19372 26094 ft 415 kts 75°
2026-05-08 14:28 -21.20382 54.22366 26090 ft 415 kts 75°
2026-05-08 14:28 -21.19653 54.25361 26091 ft 415 kts 75°
2026-05-08 14:28 -21.18926 54.28346 26095 ft 415 kts 75°
2026-05-08 14:28 -21.18197 54.31341 26096 ft 415 kts 75°
2026-05-08 14:29 -21.17470 54.34336 26096 ft 415 kts 75°
2026-05-08 14:29 -21.16741 54.37332 26095 ft 415 kts 75°
2026-05-08 14:29 -21.16010 54.40316 26092 ft 415 kts 75°
2026-05-08 14:29 -21.15273 54.43308 26094 ft 415 kts 75°
2026-05-08 14:30 -21.14544 54.46261 26093 ft 415 kts 75°
2026-05-08 14:30 -21.13797 54.49293 26089 ft 415 kts 75°
2026-05-08 14:30 -21.13071 54.52235 26095 ft 415 kts 75°
2026-05-08 14:30 -21.12333 54.55227 26092 ft 415 kts 75°
2026-05-08 14:31 -21.11598 54.58218 26095 ft 415 kts 75°
2026-05-08 14:31 -21.10864 54.61209 26097 ft 415 kts 75°
2026-05-08 14:31 -21.10130 54.64189 26097 ft 415 kts 75°
2026-05-08 14:32 -21.08652 54.70165 26096 ft 415 kts 75°
2026-05-08 14:32 -21.07915 54.73153 26096 ft 415 kts 75°
2026-05-08 14:32 -21.07181 54.76130 26096 ft 415 kts 75°
2026-05-08 14:32 -21.06443 54.79117 26096 ft 414 kts 75°
2026-05-08 14:33 -21.05958 54.81092 26097 ft 414 kts 75°
2026-05-08 14:33 -21.05224 54.84078 26096 ft 414 kts 75°
2026-05-08 14:33 -21.04250 54.88026 26097 ft 414 kts 75°
2026-05-08 14:33 -21.03752 54.90038 26095 ft 414 kts 75°
2026-05-08 14:34 -21.02772 54.93982 26093 ft 414 kts 75°
2026-05-08 14:34 -21.02031 54.96953 26095 ft 414 kts 75°
2026-05-08 14:34 -21.01526 54.98973 26093 ft 414 kts 75°
2026-05-08 14:34 -21.00788 55.01912 26096 ft 414 kts 75°
2026-05-08 14:35 -21.00035 55.04921 26095 ft 414 kts 75°
2026-05-08 14:35 -20.99300 55.07864 26093 ft 414 kts 75°
2026-05-08 14:35 -20.98559 55.10833 26092 ft 414 kts 75°
2026-05-08 14:35 -20.97816 55.13812 26092 ft 414 kts 75°
2026-05-08 14:36 -20.97074 55.16790 26087 ft 414 kts 75°
2026-05-08 14:36 -20.96332 55.19758 26085 ft 414 kts 75°
2026-05-08 14:36 -20.95585 55.22735 26084 ft 414 kts 75°
2026-05-08 14:36 -20.94841 55.25714 26075 ft 414 kts 75°
2026-05-08 14:37 -20.94096 55.28685 26073 ft 415 kts 75°
2026-05-08 14:37 -20.93345 55.31667 26071 ft 415 kts 75°
2026-05-08 14:37 -20.92592 55.34651 26069 ft 415 kts 75°
2026-05-08 14:37 -20.91842 55.37637 26066 ft 415 kts 75°
2026-05-08 14:38 -20.91094 55.40625 26065 ft 415 kts 75°
2026-05-08 14:38 -20.90347 55.43604 26064 ft 415 kts 75°
2026-05-08 14:38 -20.89607 55.46552 26065 ft 416 kts 75°
2026-05-08 14:38 -20.88979 55.49600 26066 ft 415 kts 83°
2026-05-08 14:39 -20.88849 55.52644 26067 ft 415 kts 93°
2026-05-08 14:39 -20.89203 55.55707 26066 ft 415 kts 99°
2026-05-08 14:39 -20.89676 55.58743 26066 ft 415 kts 99°
2026-05-08 14:39 -20.90146 55.61792 26065 ft 415 kts 99°
2026-05-08 14:40 -20.90611 55.64843 26071 ft 415 kts 99°
2026-05-08 14:40 -20.91072 55.67895 26071 ft 415 kts 99°
2026-05-08 14:40 -20.91530 55.70938 26075 ft 415 kts 99°
2026-05-08 14:40 -20.91987 55.73992 26079 ft 415 kts 99°
2026-05-08 14:41 -20.92445 55.77047 26086 ft 415 kts 99°
2026-05-08 14:41 -20.92905 55.80091 26086 ft 416 kts 99°
2026-05-08 14:41 -20.93368 55.83145 26091 ft 416 kts 99°
2026-05-08 14:41 -20.93829 55.86200 26098 ft 416 kts 99°
2026-05-08 14:42 -20.94281 55.89215 26101 ft 416 kts 99°
2026-05-08 14:42 -20.94746 55.92300 26106 ft 416 kts 99°
2026-05-08 14:42 -20.95202 55.95314 26106 ft 416 kts 99°
2026-05-08 14:42 -20.95662 55.98369 26107 ft 416 kts 99°
2026-05-08 14:43 -20.96119 56.01415 26106 ft 416 kts 99°
2026-05-08 14:43 -20.96577 56.04470 26108 ft 415 kts 99°
2026-05-08 14:43 -20.97034 56.07516 26107 ft 415 kts 99°
2026-05-08 14:43 -20.97489 56.10571 26109 ft 415 kts 99°
2026-05-08 14:44 -20.97944 56.13626 26107 ft 415 kts 99°
2026-05-08 14:44 -20.98398 56.16682 26103 ft 415 kts 99°
2026-05-08 14:44 -20.98849 56.19728 26103 ft 415 kts 99°
2026-05-08 14:44 -20.99299 56.22785 26104 ft 415 kts 99°
2026-05-08 14:45 -20.99748 56.25842 26105 ft 415 kts 99°
2026-05-08 14:45 -21.00196 56.28890 26106 ft 415 kts 99°
2026-05-08 14:45 -21.00647 56.31947 26102 ft 415 kts 99°
2026-05-08 14:45 -21.01092 56.34964 26101 ft 415 kts 98°
2026-05-08 14:46 -21.01281 56.38089 26102 ft 415 kts 88°
2026-05-08 14:46 -21.00930 56.41105 26103 ft 415 kts 77°
2026-05-08 14:46 -21.00052 56.44045 26099 ft 415 kts 66°
2026-05-08 14:46 -20.98847 56.46818 25910 ft 408 kts 64°
2026-05-08 14:47 -20.97652 56.49537 25680 ft 400 kts 64°
2026-05-08 14:47 -20.96475 56.52216 25456 ft 396 kts 64°
2026-05-08 14:47 -20.95314 56.54866 25232 ft 393 kts 64°
2026-05-08 14:47 -20.94157 56.57510 25000 ft 391 kts 64°
2026-05-08 14:48 -20.93010 56.60130 24771 ft 389 kts 64°
2026-05-08 14:48 -20.91862 56.62744 24554 ft 387 kts 64°
2026-05-08 14:48 -20.90717 56.65343 24338 ft 385 kts 64°
2026-05-08 14:48 -20.89582 56.67920 24119 ft 383 kts 64°
2026-05-08 14:49 -20.88448 56.70493 23898 ft 381 kts 64°
2026-05-08 14:49 -20.87318 56.73051 23683 ft 378 kts 64°
2026-05-08 14:49 -20.86212 56.75551 23261 ft 375 kts 64°
2026-05-08 14:49 -20.85087 56.78097 22774 ft 374 kts 65°
2026-05-08 14:50 -20.83992 56.80577 22312 ft 373 kts 65°
2026-05-08 14:50 -20.82886 56.83082 21845 ft 372 kts 65°
2026-05-08 14:50 -20.81789 56.85573 21378 ft 371 kts 65°
2026-05-08 14:50 -20.80692 56.88065 20916 ft 370 kts 66°
2026-05-08 14:51 -20.79596 56.90550 20454 ft 369 kts 66°
2026-05-08 14:51 -20.78506 56.93021 19997 ft 368 kts 66°
2026-05-08 14:51 -20.77411 56.95494 19538 ft 368 kts 66°
2026-05-08 14:51 -20.76276 56.97945 19070 ft 368 kts 64°
2026-05-08 14:52 -20.75087 57.00371 18602 ft 368 kts 64°
2026-05-08 14:52 -20.72653 57.05174 17651 ft 366 kts 64°
2026-05-08 14:52 -20.71444 57.07555 17240 ft 363 kts 64°
2026-05-08 14:53 -20.70251 57.09918 16826 ft 360 kts 63°
2026-05-08 14:53 -20.69069 57.12276 16402 ft 358 kts 64°
2026-05-08 14:53 -20.67902 57.14615 15950 ft 356 kts 63°
2026-05-08 14:53 -20.66763 57.16906 15609 ft 352 kts 64°
2026-05-08 14:54 -20.65617 57.19215 15180 ft 351 kts 64°
2026-05-08 14:54 -20.64476 57.21512 14796 ft 348 kts 64°
2026-05-08 14:54 -20.63346 57.23783 14416 ft 345 kts 64°
2026-05-08 14:54 -20.62230 57.26023 13911 ft 336 kts 64°
2026-05-08 14:55 -20.61167 57.28146 13769 ft 314 kts 64°
2026-05-08 14:55 -20.60166 57.30144 13648 ft 295 kts 64°
2026-05-08 14:55 -20.59182 57.32007 13326 ft 285 kts 57°
2026-05-08 14:55 -20.57797 57.33528 12725 ft 289 kts 37°
2026-05-08 14:56 -20.55982 57.34462 12115 ft 294 kts 17°
2026-05-08 14:56 -20.53944 57.34685 11509 ft 297 kts 357°
2026-05-08 14:56 -20.51930 57.34188 10918 ft 298 kts 343°
2026-05-08 14:56 -20.49952 57.33531 10336 ft 297 kts 345°
2026-05-08 14:57 -20.47983 57.32899 9739 ft 295 kts 346°
2026-05-08 14:57 -20.46024 57.32269 9103 ft 293 kts 345°
2026-05-08 14:57 -20.44091 57.31644 8481 ft 289 kts 346°
2026-05-08 14:57 -20.42175 57.31018 7868 ft 287 kts 346°
2026-05-08 14:58 -20.40273 57.30395 7268 ft 285 kts 345°
2026-05-08 14:58 -20.38392 57.29775 6681 ft 283 kts 346°
2026-05-08 14:58 -20.36520 57.29152 6067 ft 281 kts 345°
2026-05-08 14:58 -20.34660 57.28534 5451 ft 279 kts 346°
2026-05-08 14:59 -20.32855 57.27928 5217 ft 262 kts 346°
2026-05-08 14:59 -20.29430 57.26833 4629 ft 251 kts 355°
2026-05-08 14:59 -20.27739 57.26928 4259 ft 245 kts 16°
2026-05-08 15:00 -20.26253 57.27752 4019 ft 242 kts 40°
2026-05-08 15:00 -20.25212 57.29154 4017 ft 242 kts 65°
2026-05-08 15:00 -20.24816 57.30787 4009 ft 218 kts 89°
2026-05-08 15:00 -20.25010 57.32296 4030 ft 197 kts 109°
2026-05-08 15:01 -20.25702 57.33512 4021 ft 192 kts 140°
2026-05-08 15:01 -20.26707 57.34443 4017 ft 193 kts 127°
2026-05-08 15:01 -20.27257 57.35740 4020 ft 193 kts 113°
2026-05-08 15:01 -20.27861 57.37018 4020 ft 193 kts 118°
2026-05-08 15:02 -20.28487 57.38279 4006 ft 192 kts 118°
2026-05-08 15:02 -20.29098 57.39530 3746 ft 189 kts 118°
2026-05-08 15:02 -20.29700 57.40772 3747 ft 191 kts 118°
2026-05-08 15:02 -20.30312 57.42034 3749 ft 192 kts 117°
2026-05-08 15:03 -20.30924 57.43300 3749 ft 193 kts 117°
2026-05-08 15:03 -20.31531 57.44554 3749 ft 193 kts 117°
2026-05-08 15:03 -20.32147 57.45827 3744 ft 188 kts 117°
2026-05-08 15:03 -20.32734 57.47042 3741 ft 185 kts 117°
2026-05-08 15:04 -20.33320 57.48252 3696 ft 184 kts 117°
2026-05-08 15:04 -20.33902 57.49457 3660 ft 183 kts 117°
2026-05-08 15:04 -20.34486 57.50664 3652 ft 183 kts 117°
2026-05-08 15:04 -20.35068 57.51868 3530 ft 183 kts 117°
2026-05-08 15:05 -20.35650 57.53073 3447 ft 183 kts 117°
2026-05-08 15:05 -20.36231 57.54275 3259 ft 182 kts 117°
2026-05-08 15:05 -20.36808 57.55471 2993 ft 181 kts 117°
2026-05-08 15:05 -20.37372 57.56638 2736 ft 171 kts 117°
2026-05-08 15:06 -20.37892 57.57716 2471 ft 158 kts 117°
2026-05-08 15:06 -20.38382 57.58732 2225 ft 151 kts 117°
2026-05-08 15:06 -20.38858 57.59719 1999 ft 148 kts 117°
2026-05-08 15:06 -20.39326 57.60688 1774 ft 147 kts 117°
2026-05-08 15:07 -20.39792 57.61653 1539 ft 146 kts 117°
2026-05-08 15:07 -20.40254 57.62611 1325 ft 145 kts 117°
2026-05-08 15:07 -20.40708 57.63554 1097 ft 144 kts 117°
2026-05-08 15:07 -20.41167 57.64505 877 ft 144 kts 117°
2026-05-08 15:08 -20.41623 57.65450 664 ft 143 kts 117°
2026-05-08 15:08 -20.41927 57.66077 528 ft 143 kts 117°
2026-05-08 15:08 -20.42537 57.67332 238 ft 142 kts 118°
2026-05-08 15:08 -20.42972 57.68228 155 ft 127 kts 117°
2026-05-08 15:09 -20.43256 57.68829 135 ft 51 kts 115°
2026-05-08 15:09 -20.43398 57.69137 124 ft 39 kts 117°
2026-05-08 15:09 -20.43508 57.69366 115 ft 17 kts 117°
2026-05-08 15:09 -20.43557 57.69372 116 ft 14 kts 209°
2026-05-08 15:10 -20.43652 57.69300 119 ft 15 kts 240°
2026-05-08 15:10 -20.43630 57.69241 120 ft 7 kts 300°
2026-05-08 15:10 -20.43617 57.69217 121 ft 0 kts 300°
2026-05-08 15:10 -20.43614 57.69203 122 ft 12 kts 277°
2026-05-08 15:11 -20.43557 57.69087 125 ft 17 kts 293°
2026-05-08 15:11 -20.43521 57.68990 126 ft 12 kts 295°
2026-05-08 15:11 -20.43485 57.68917 130 ft 9 kts 299°
2026-05-08 15:11 -20.43446 57.68842 133 ft 21 kts 297°
2026-05-08 15:12 -20.43383 57.68702 137 ft 19 kts 296°
2026-05-08 15:12 -20.43327 57.68588 140 ft 17 kts 299°
2026-05-08 15:12 -20.43267 57.68471 144 ft 18 kts 294°
2026-05-08 15:12 -20.43291 57.68347 146 ft 17 kts 267°
2026-05-08 15:13 -20.43239 57.68231 150 ft 19 kts 297°
2026-05-08 15:13 -20.43174 57.68092 153 ft 22 kts 296°
2026-05-08 15:13 -20.43104 57.67944 158 ft 23 kts 297°
2026-05-08 15:13 -20.43043 57.67813 161 ft 12 kts 286°
2026-05-08 15:14 -20.43057 57.67726 163 ft 13 kts 235°
2026-05-08 15:14 -20.43108 57.67703 163 ft 0 kts 213°